星链-3622 (STARLINK-3622 )

导读

STARLINK-3622是美国SpaceX公司星链星座的成员卫星,于2022年2月25日发射升空。作为星链第一代组网卫星,它运行在近地轨道,配备氪离子推进系统与相控阵通信天线,主要为全球偏远地区提供高速宽带互联网接入服务。星链星座通过大规模低轨卫星组网,实现全球覆盖,该卫星设计寿命约5年,退役后会主动降轨在大气层中销毁,减少空间碎片影响。

基本信息
目录编号:
51768
目录名称:
STARLINK-3622
国际标识:
2022-017A
轨道中心:
EARTH
卫星名称:
星链-3622
卫星全名:
星链-3622 (STARLINK-3622 )
卫星状态:
在轨 (已飞行1652 天)
发射日期:
2022-02-25 UTC
国别 :
美国 (US)
星等 :
--
轨道信息
数据来源 国际轨道数据 AOE轨道数据
星历时间 2026-09-04T04:00:02+0800
10小时前
查看轨道信息
2026-09-03T05:00:00+0800
1天前
查看轨道信息
半长轴 6840.934km 6840.864km
偏心率 0.0001048 0.0000908
轨道倾角 53.159° 53.159°
近地点辐角 98.512° 86.148°
升交点赤经 249.296° 253.778°
平近点角 266.088° 21.688°
近地点 462.08km 462.105km
远地点 463.514km 463.349km
周期 93.850分钟 93.848分钟
每日圈数 15.343686 15.343922
详细信息
固有亮度:
5
最大亮度:
2.5
卫星平台:
Starlink v1.5
覆盖范围:
全球
运营商:
太空探索技术公司
运营商所在国:
美国
制造商(研发单位):
太空探索技术公司
制造商所在国:
美国
使用方式:
暂无
卫星简介
星链(Starlink)计划是由太空探索技术公司(SpaceX)提出的一个巨型低轨卫星互联网星座项目,计划在2019年至2024年间在太空搭建由约1.2万颗卫星组成的“星链”网络,其中1584颗将部署在地球上空550千米处的近地轨道,并从2020年开始工作。该卫星仍在工作。
2D轨道图
3D轨道图
轨道高度分析图
轨道倾角分析图
轨道综合分析图
查看轨道综合分析图
交会数据列表
事件ID 空间交会对象 最接近时刻(TCA) 交会距离 交会风险概率(CRP) 交会风险指数(CRI) 操作
CDM_260904-221605-176806-033821
2026-09-04T
22:16:46+0000
0.593 km
远距离
8.935427E-5 中风险 0.74
CDM_260905-065205-176806-033821
2026-09-05T
06:52:40+0000
1.615 km
极远距离
3.429528E-6 低风险 0.46
CDM_260902-132805-176805-269821
2026-09-02T
13:28:56+0000
2.519 km
极远距离
1.546586E-6 低风险 0.39
CDM_260905-161905-176805-301021
2026-09-05T
16:19:41+0000
2.387 km
极远距离
1.531329E-6 低风险 0.39
CDM_260905-082605-176806-033821
2026-09-05T
08:26:28+0000
2.233 km
极远距离
1.480525E-6 低风险 0.38